Previsão horária em Alihanmahi

Hoje, 16 Janeiro, Sábado

Tempo Temperatura Precipitação Vento Pressão Humidade
00:00 -4°C° 0 mm 2 m/s 622 mmHg 72%
01:00 -3°C° 0 mm 2 m/s 623 mmHg 71%
02:00 -3°C° 0 mm 2 m/s 623 mmHg 71%
03:00 -3°C° 0 mm 2 m/s 623 mmHg 75%
04:00 -4°C° 0 mm 2 m/s 623 mmHg 79%
05:00 -2°C° 0 mm 1 m/s 624 mmHg 82%
06:00 -2°C° 0 mm 1 m/s 624 mmHg 86%
07:00 -2°C° 0 mm 1 m/s 624 mmHg 83%
08:00 -2°C° 0 mm 1 m/s 625 mmHg 79%
09:00 -3°C° 0 mm 2 m/s 625 mmHg 80%
10:00 -3°C° 0 mm 2 m/s 625 mmHg 77%
11:00 -2°C° 0 mm 2 m/s 626 mmHg 74%
12:00 -1°C° 0 mm 2 m/s 626 mmHg 71%
13:00 -2°C° 0 mm 2 m/s 625 mmHg 74%
14:00 -2°C° 0 mm 2 m/s 625 mmHg 76%
15:00 -2°C° 0 mm 2 m/s 625 mmHg 78%
16:00 -2°C° 0 mm 2 m/s 624 mmHg 80%
17:00 -3°C° 0 mm 2 m/s 624 mmHg 83%
18:00 -2°C° 0 mm 1 m/s 624 mmHg 85%
19:00 -1°C° 0 mm 1 m/s 624 mmHg 81%
20:00 -1°C° 0 mm 1 m/s 624 mmHg 78%
21:00 -3°C° 0 mm 2 m/s 624 mmHg 74%
22:00 -3°C° 0 mm 2 m/s 624 mmHg 72%
23:00 -2°C° 0 mm 2 m/s 623 mmHg 70%

Amanhã, 17 Janeiro, Domingo

Tempo Temperatura Precipitação Vento Pressão Humidade
00:00 -2°C° 0 mm 2 m/s 623 mmHg 68%
01:00 -2°C° 0 mm 2 m/s 623 mmHg 67%
02:00 -2°C° 0 mm 2 m/s 622 mmHg 66%
03:00 -2°C° 0 mm 2 m/s 622 mmHg 65%
04:00 -2°C° 0 mm 2 m/s 622 mmHg 64%
05:00 -2°C° 0 mm 2 m/s 621 mmHg 63%
06:00 -2°C° 0 mm 2 m/s 621 mmHg 61%
07:00 -1°C° 0 mm 2 m/s 620 mmHg 57%
08:00 -1°C° 0 mm 2 m/s 620 mmHg 53%
09:00 +1°C° 0 mm 2 m/s 620 mmHg 49%
10:00 +3°C° 0 mm 2 m/s 620 mmHg 45%
11:00 +5°C° 0 mm 1 m/s 620 mmHg 41%
12:00 +7°C° 0 mm 1 m/s 620 mmHg 36%
13:00 +6°C° 0 mm 1 m/s 620 mmHg 41%
14:00 +6°C° 0 mm 1 m/s 619 mmHg 46%
15:00 +5°C° 0 mm 1 m/s 619 mmHg 50%
16:00 +4°C° 0 mm 1 m/s 618 mmHg 53%
17:00 +2°C° 0 mm 2 m/s 618 mmHg 56%
18:00 +1°C° 0 mm 2 m/s 618 mmHg 59%
19:00 -1°C° 0 mm 2 m/s 617 mmHg 59%
20:00 -1°C° 0 mm 2 m/s 617 mmHg 59%
21:00 -1°C° 0 mm 3 m/s 617 mmHg 58%
22:00 -1°C° 0 mm 3 m/s 617 mmHg 58%
23:00 -1°C° 0 mm 2 m/s 617 mmHg 58%

Depois de amanhã, 18 Janeiro, Segunda-feira

Tempo Temperatura Precipitação Vento Pressão Humidade
00:00 -1°C° 0 mm 2 m/s 617 mmHg 57%
01:00 -1°C° 0 mm 2 m/s 616 mmHg 56%
02:00 -1°C° 0 mm 3 m/s 616 mmHg 55%
03:00 -1°C° 0 mm 3 m/s 616 mmHg 53%
04:00 -1°C° 0 mm 3 m/s 616 mmHg 53%
05:00 -1°C° 0 mm 2 m/s 616 mmHg 53%
06:00 -1°C° 0 mm 2 m/s 616 mmHg 53%
07:00 -1°C° 0 mm 2 m/s 617 mmHg 54%
08:00 +1°C° 0 mm 2 m/s 618 mmHg 56%
09:00 +1°C° 0 mm 2 m/s 618 mmHg 57%
10:00 +2°C° 0 mm 2 m/s 619 mmHg 55%
11:00 +3°C° 0 mm 2 m/s 620 mmHg 53%
12:00 +4°C° 0 mm 2 m/s 621 mmHg 51%
13:00 +2°C° 0 mm 2 m/s 621 mmHg 58%
14:00 +1°C° 0 mm 2 m/s 620 mmHg 66%
15:00 -1°C° 0 mm 2 m/s 620 mmHg 73%
16:00 -2°C° 0 mm 2 m/s 621 mmHg 79%
17:00 -1°C° 0 mm 1 m/s 621 mmHg 85%
18:00 -2°C° 0 mm 1 m/s 621 mmHg 91%
19:00 -2°C° 0.1 mm 1 m/s 622 mmHg 91%
20:00 -2°C° 0.1 mm 1 m/s 622 mmHg 92%
21:00 -5°C° 0.1 mm 2 m/s 622 mmHg 92%
22:00 -5°C° 0.2 mm 2 m/s 622 mmHg 92%
23:00 -5°C° 0.2 mm 2 m/s 623 mmHg 91%

19 Janeiro, Terça-feira

Tempo Temperatura Precipitação Vento Pressão Humidade
00:00 -6°C° 0.2 mm 2 m/s 623 mmHg 91%
01:00 -6°C° 0.2 mm 2 m/s 623 mmHg 91%
02:00 -6°C° 0.2 mm 2 m/s 623 mmHg 92%
03:00 -6°C° 0.2 mm 1 m/s 623 mmHg 92%
04:00 -6°C° 0.5 mm 1 m/s 623 mmHg 92%
05:00 -6°C° 0.5 mm 1 m/s 624 mmHg 92%
06:00 -7°C° 0.5 mm 1 m/s 624 mmHg 92%
07:00 -7°C° 0.1 mm 1 m/s 624 mmHg 90%
08:00 -8°C° 0.1 mm 2 m/s 624 mmHg 89%
09:00 -8°C° 0.1 mm 2 m/s 624 mmHg 87%
10:00 -8°C° 0.1 mm 2 m/s 624 mmHg 86%
11:00 -7°C° 0.1 mm 2 m/s 624 mmHg 84%
12:00 -7°C° 0.1 mm 2 m/s 624 mmHg 83%
13:00 -7°C° 0.2 mm 2 m/s 623 mmHg 85%
14:00 -8°C° 0.2 mm 2 m/s 623 mmHg 87%
15:00 -8°C° 0.2 mm 2 m/s 622 mmHg 89%
16:00 -9°C° 0.3 mm 2 m/s 622 mmHg 90%
17:00 -8°C° 0.3 mm 1 m/s 622 mmHg 91%
18:00 -9°C° 0.3 mm 1 m/s 622 mmHg 92%
19:00 -9°C° 0.2 mm 1 m/s 622 mmHg 92%
20:00 -9°C° 0.2 mm 1 m/s 623 mmHg 92%
21:00 -10°C° 0.2 mm 1 m/s 623 mmHg 92%
22:00 -10°C° 0.2 mm 1 m/s 623 mmHg 92%
23:00 -10°C° 0.2 mm 1 m/s 623 mmHg 92%

20 Janeiro, Quarta-feira

Tempo Temperatura Precipitação Vento Pressão Humidade
00:00 -10°C° 0.2 mm 1 m/s 623 mmHg 92%
01:00 -10°C° 0.1 mm 1 m/s 623 mmHg 92%
02:00 -10°C° 0.1 mm 1 m/s 623 mmHg 92%
03:00 -10°C° 0.1 mm 0 m/s 623 mmHg 92%
04:00 -10°C° 0.1 mm 1 m/s 624 mmHg 93%
05:00 -10°C° 0.1 mm 1 m/s 624 mmHg 94%
06:00 -11°C° 0.1 mm 1 m/s 624 mmHg 95%
07:00 -11°C° 0.1 mm 1 m/s 624 mmHg 93%
08:00 -10°C° 0.1 mm 1 m/s 625 mmHg 92%
09:00 -10°C° 0.1 mm 1 m/s 625 mmHg 91%
10:00 -10°C° 0.1 mm 1 m/s 625 mmHg 89%
11:00 -12°C° 0.1 mm 2 m/s 625 mmHg 88%
12:00 -10°C° 0.1 mm 2 m/s 625 mmHg 86%
13:00 -10°C° 0.2 mm 2 m/s 625 mmHg 87%
14:00 -12°C° 0.2 mm 2 m/s 625 mmHg 88%
15:00 -12°C° 0.2 mm 2 m/s 625 mmHg 89%
16:00 -11°C° 0.1 mm 1 m/s 626 mmHg 91%
17:00 -11°C° 0.1 mm 1 m/s 626 mmHg 93%
18:00 -12°C° 0.1 mm 1 m/s 626 mmHg 95%
19:00 -13°C° 0 mm 1 m/s 626 mmHg 93%
20:00 -13°C° 0 mm 1 m/s 626 mmHg 90%
21:00 -13°C° 0 mm 1 m/s 626 mmHg 88%
22:00 -14°C° 0 mm 1 m/s 626 mmHg 86%
23:00 -14°C° 0 mm 1 m/s 627 mmHg 83%

21 Janeiro, Quinta-feira

Tempo Temperatura Precipitação Vento Pressão Humidade
00:00 -14°C° 0 mm 1 m/s 627 mmHg 81%
01:00 -14°C° 0 mm 1 m/s 627 mmHg 80%
02:00 -14°C° 0 mm 1 m/s 627 mmHg 79%
03:00 -14°C° 0 mm 1 m/s 627 mmHg 78%
04:00 -14°C° 0 mm 1 m/s 627 mmHg 77%
05:00 -15°C° 0 mm 1 m/s 627 mmHg 75%
06:00 -15°C° 0 mm 1 m/s 627 mmHg 73%
07:00 -14°C° 0 mm 1 m/s 628 mmHg 70%
08:00 -13°C° 0 mm 1 m/s 629 mmHg 68%
09:00 -12°C° 0 mm 1 m/s 630 mmHg 65%
10:00 -11°C° 0 mm 1 m/s 630 mmHg 64%
11:00 -10°C° 0 mm 1 m/s 631 mmHg 63%
12:00 -9°C° 0 mm 1 m/s 631 mmHg 62%
13:00 -9°C° 0 mm 1 m/s 631 mmHg 65%
14:00 -8°C° 0 mm 1 m/s 631 mmHg 69%
15:00 -8°C° 0 mm 1 m/s 632 mmHg 72%
16:00 -10°C° 0 mm 1 m/s 631 mmHg 74%
17:00 -11°C° 0 mm 1 m/s 631 mmHg 76%
18:00 -12°C° 0 mm 1 m/s 631 mmHg 78%
19:00 -12°C° 0 mm 1 m/s 631 mmHg 74%
20:00 -12°C° 0 mm 1 m/s 632 mmHg 70%
21:00 -14°C° 0 mm 2 m/s 632 mmHg 66%
22:00 -15°C° 0 mm 2 m/s 632 mmHg 63%
23:00 -15°C° 0 mm 2 m/s 632 mmHg 61%
Mostrar mais

Necessitamos do seu Consentimento

A Meteoprog e os seus Fornecedores de Serviços podem armazenar e aceder a dados pessoais como cookies, identificadores do dispositivo ou outras tecnologias semelhantes existentes no seu dispositivo e processar estes dados para personalizar conteúdos e anúncios, assim como funcionalidades nas redes sociais e análise de tráfego.

  • Armazenar e/ou aceder a informações no seu dispositivo

    Os cookies, identificadores do dispositivo ou outras informações podem ser armazenados ou acedidos no seu dispositivo, para os fins acima indicados.

  • Anúncios e conteúdos personalizados, medição de anúncios e conteúdos, dados sobre o público-alvo e desenvolvimento de produtos

    Os anúncios e os conteúdos podem ser personalizados com base num perfil. Podem ser adicionados dados adicionais para uma maior personalização dos anúncios e dos conteúdos. A eficácia dos anúncios e dos conteúdos pode ser medida. Podem ser obtidas informações sobre o público que visualizou os anúncios e os conteúdos. Estes dados podem ser usados para desenvolver ou melhorar sistemas, softwares ou a experiência do utilizador.

Ao clicar em "Eu concordo”, permitirá o uso de cookies, identificadores do dispositivo e web beacons mencionados ou outras tecnologias semelhantes. As configurações do navegador do seu dispositivo podem ser alteradas.

Para certos fins, podem ser invocados interesses legítimos ao invés de consentimento. Pode ler mais informação sobre este assunto na nossa Política de Privacidade e Cookies.